Volver al catálogo

GEESAT 4-06

ActivoComunicacionesLEO
NORAD 65124·PAYLOAD·🇨🇳 China

Lanzado Aug 8, 2025 desde Yellow Sea Launch Area

Loading…

Próximos Pases (próximas 24 horas)

TLE

ActualizadoSource: Space-Track

Época: Sep 14, 2026, 21:26 UTC

1 65124U 25170F   26257.89362884  .00001218  00000-0  17081-3 0  9995
2 65124  49.9835 117.9311 0018676  25.9088 334.2781 14.84257842 59750

Sigue GEESAT 4-06 en tiempo real con AllMySat

Download on the App Store